Regional Weather Roundup
Issued by NWS

Home | Current Version | Previous Version | Text Only | Print | Product List | Glossary Off
Versions: 1 2 3 4 5 6 7 8 9 10 11 12 13 14 15 16 17 18 19 20 21 22 23 24 25 26 27 28 29 30 31 32 33 34 35 36 37 38 39 40 41 42 43 44 45 46 47 48 49 50

000
ASUS43 KOAX 141402
RWRNE

WEATHER ROUNDUP FOR NEBRASKA
NATIONAL WEATHER SERVICE OMAHA NE
800 AM CST SUN FEB 14 2016

NOTES: SATELLITE DATA IS BEING USED TO AUGMENT CLOUD COVER ABOVE
       12000 FEET.
       "FAIR" INDICATES FEW OR NO CLOUDS BELOW 12,000 FEET WITH NO
       SIGNIFICANT WEATHER AND/OR OBSTRUCTIONS TO VISIBILITY.

  * THESE STATIONS DO NOT REPORT WEATHER SUCH AS RAIN...SNOW OR FOG.

NEZ001>004-019>022-054>056-141500-
NEBRASKA PANHANDLE

CITY           SKY/WX    TMP DP  RH WIND       PRES   REMARKS
SCOTTSBLUFF    CLOUDY    25  21  85 N7        29.87F WCI  17
ALLIANCE       CLOUDY    28  23  81 W3        29.86F
CHADRON        PTCLDY    29  24  82 SW3       29.88F
SIDNEY         CLOUDY    28  21  75 W8        29.90F WCI  20
$$

NEZ057>060-069>072-079>082-141500-
SOUTHWEST NEBRASKA

CITY           SKY/WX    TMP DP  RH WIND       PRES   REMARKS
NORTH PLATTE   CLOUDY    29  23  78 W6        29.90S WCI  23
IMPERIAL       CLOUDY    30  22  72 W8        29.94R WCI  22
MCCOOK         CLEAR     30  24  78 N14       29.91F WCI  19
$$

NEZ005>010-023>029-035>040-094-141500-
NORTH CENTRAL NEBRASKA

CITY           SKY/WX    TMP DP  RH WIND       PRES   REMARKS
VALENTINE      CLEAR     26  23  88 W8        29.85R WCI  18
BROKEN BOW     CLEAR     34  26  72 NW13      29.85F WCI  25
ORD            CLEAR     37  29  72 NW16      29.84S WCI  28
$$

NEZ041-046>049-061>064-073>077-083>087-141500-
SOUTH CENTRAL NEBRASKA

CITY           SKY/WX    TMP DP  RH WIND       PRES   REMARKS
GRAND ISLAND   CLEAR     30  24  78 W13       29.87R WCI  20
HASTINGS       CLEAR     24  20  84 W8        29.88S WCI  15
KEARNEY *      CLEAR     34  27  75 W15       29.89R WCI  24
YORK           CLOUDY    27  25  93 W13       29.86S WCI  16
$$

NEZ011>018-030>034-042>045-141500-
NORTHEAST NEBRASKA

CITY           SKY/WX    TMP DP  RH WIND       PRES   REMARKS
NORFOLK        CLOUDY    25  22  88 CALM      29.80F
COLUMBUS *     CLOUDY    28  16  59 SW7       29.83S WCI  21
TEKAMAH        CLOUDY    20  15  81 S13       29.90S HAZE    WCI   7
$$

NEZ050>053-065>068-078-088>093-141500-
SOUTHEAST NEBRASKA

CITY           SKY/WX    TMP DP  RH WIND       PRES   REMARKS
LINCOLN        CLOUDY    22  12  65 SW12      29.91S WCI  10
OMAHA EPPLEY   CLOUDY    22  11  62 S17       29.92F WCI   8
FALLS CITY     CLOUDY    24   8  50 S10       29.96S WCI  14
NEBRASKA CITY  CLOUDY    23   8  50 S15       29.93S WCI  10
$$

NEZ044-045-051>053-067-141500-
OMAHA AREA

CITY           SKY/WX    TMP DP  RH WIND       PRES   REMARKS
OMAHA EPPLEY   CLOUDY    22  11  62 S17       29.92F WCI   8
OFFUTT AFB     CLOUDY    23  10  56 S12       29.91F WCI  12
WAHOO          CLOUDY    23  15  70 S10       29.88S WCI  12
$$



USA.gov is the U.S. government's official web portal to all federal, state and local government web resources and services.